CES8185 PGUM-ZSPD

Flight info

Callsign CES8185
Flight time N/A
Altitude 36000
Route UNZ G339 CANAI/N0461F380 G339 AGIKA Z41 POTET A593 LAMEN/K0861F380 A593 AKARA/K0865S1160 A593 DUMET DUM81A
Aircraft A20N/M-SDE2E3FGHIRWXY/LB1

Departure

Time 2026-05-05 06:09
Airport Antonio B. Won Pat International Airport (PGUM)

Arrival

Time N/A
Airport Shanghai Pudong International Airport (ZSPD)
Time Latitude Longitude Altitude Speed Heading
2026-05-05 05:35 13.49030 144.80276 269 ft 0 kts 334°
2026-05-05 05:57 13.49024 144.80280 267 ft 2 kts 333°
2026-05-05 05:58 13.49010 144.80287 267 ft 2 kts 333°
2026-05-05 05:58 13.48997 144.80293 267 ft 2 kts 333°
2026-05-05 05:58 13.48983 144.80301 267 ft 2 kts 333°
2026-05-05 05:58 13.48970 144.80307 270 ft 2 kts 333°
2026-05-05 05:59 13.48956 144.80315 274 ft 2 kts 333°
2026-05-05 05:59 13.48943 144.80321 277 ft 2 kts 333°
2026-05-05 05:59 13.48929 144.80328 281 ft 1 kts 333°
2026-05-05 05:59 13.48921 144.80331 282 ft 1 kts 311°
2026-05-05 06:00 13.48917 144.80345 282 ft 2 kts 257°
2026-05-05 06:00 13.48920 144.80353 282 ft 0 kts 229°
2026-05-05 06:00 13.48924 144.80357 282 ft 0 kts 233°
2026-05-05 06:02 13.48919 144.80351 282 ft 3 kts 233°
2026-05-05 06:02 13.48896 144.80316 281 ft 9 kts 238°
2026-05-05 06:02 13.48854 144.80238 276 ft 15 kts 243°
2026-05-05 06:02 13.48803 144.80129 273 ft 18 kts 245°
2026-05-05 06:03 13.48746 144.80006 272 ft 19 kts 246°
2026-05-05 06:03 13.48690 144.79883 273 ft 18 kts 244°
2026-05-05 06:03 13.48634 144.79761 274 ft 19 kts 245°
2026-05-05 06:03 13.48577 144.79636 273 ft 19 kts 245°
2026-05-05 06:04 13.48518 144.79507 272 ft 20 kts 244°
2026-05-05 06:04 13.48456 144.79373 271 ft 21 kts 243°
2026-05-05 06:04 13.48391 144.79230 268 ft 22 kts 245°
2026-05-05 06:04 13.48320 144.79074 263 ft 24 kts 245°
2026-05-05 06:05 13.48244 144.78909 258 ft 26 kts 244°
2026-05-05 06:05 13.48163 144.78732 252 ft 27 kts 255°
2026-05-05 06:05 13.48093 144.78580 247 ft 22 kts 244°
2026-05-05 06:05 13.48026 144.78433 243 ft 21 kts 244°
2026-05-05 06:06 13.47987 144.78380 243 ft 2 kts 183°
2026-05-05 06:06 13.47985 144.78380 243 ft 1 kts 180°
2026-05-05 06:06 13.47964 144.78386 244 ft 4 kts 158°
2026-05-05 06:07 13.47936 144.78398 245 ft 4 kts 155°
2026-05-05 06:07 13.47915 144.78426 245 ft 6 kts 106°
2026-05-05 06:07 13.47926 144.78477 244 ft 8 kts 66°
2026-05-05 06:07 13.48007 144.78653 248 ft 55 kts 65°
2026-05-05 06:08 13.48245 144.79178 269 ft 105 kts 64°
2026-05-05 06:08 13.48617 144.79990 275 ft 147 kts 65°
2026-05-05 06:08 13.49069 144.81007 529 ft 158 kts 67°
2026-05-05 06:08 13.49518 144.82072 891 ft 165 kts 66°
2026-05-05 06:09 13.49996 144.83073 1562 ft 155 kts 64°
2026-05-05 06:09 13.50349 144.84084 2062 ft 152 kts 88°
2026-05-05 06:09 13.50061 144.85158 2291 ft 169 kts 118°
2026-05-05 06:09 13.49141 144.86034 2531 ft 192 kts 148°
2026-05-05 06:10 13.47754 144.86281 2764 ft 219 kts 184°
2026-05-05 06:10 13.46326 144.85532 2922 ft 250 kts 227°
2026-05-05 06:10 13.45549 144.83896 3204 ft 269 kts 265°
2026-05-05 06:10 13.45821 144.81987 3497 ft 278 kts 301°
2026-05-05 06:11 13.47091 144.80505 3883 ft 278 kts 332°
2026-05-05 06:11 13.48757 144.79468 4513 ft 282 kts 327°
2026-05-05 06:11 13.50010 144.77908 5111 ft 295 kts 294°
2026-05-05 06:11 13.50040 144.74850 6090 ft 300 kts 245°
2026-05-05 06:12 13.47105 144.72070 7421 ft 296 kts 211°
2026-05-05 06:12 13.44359 144.69150 8620 ft 307 kts 251°
2026-05-05 06:12 13.44147 144.66952 9259 ft 305 kts 283°
2026-05-05 06:12 13.45726 144.64365 10118 ft 298 kts 328°
2026-05-05 06:13 13.49191 144.63733 10665 ft 310 kts 18°
2026-05-05 06:13 13.52935 144.65279 11058 ft 336 kts
2026-05-05 06:13 13.57199 144.64072 11462 ft 368 kts 322°
2026-05-05 06:13 13.61033 144.60318 12159 ft 388 kts 317°
2026-05-05 06:14 13.64955 144.56575 13217 ft 390 kts 319°
2026-05-05 06:14 13.68833 144.53067 14129 ft 395 kts 320°
2026-05-05 06:14 13.72749 144.49602 14958 ft 399 kts 321°
2026-05-05 06:14 13.76767 144.46074 15740 ft 404 kts 321°
2026-05-05 06:15 13.80912 144.42445 16499 ft 409 kts 321°
2026-05-05 06:15 13.84888 144.38968 17203 ft 413 kts 321°
2026-05-05 06:15 13.88740 144.35597 17857 ft 416 kts 321°
2026-05-05 06:15 13.93164 144.31722 18562 ft 421 kts 321°
2026-05-05 06:16 13.97637 144.27806 19233 ft 426 kts 321°
2026-05-05 06:16 14.02151 144.23848 19903 ft 430 kts 321°
2026-05-05 06:16 14.06532 144.20007 20552 ft 433 kts 321°
2026-05-05 06:16 14.10706 144.16345 21145 ft 436 kts 321°
2026-05-05 06:17 14.14623 144.12906 21700 ft 439 kts 321°
2026-05-05 06:17 14.19301 144.08798 22309 ft 444 kts 321°
2026-05-05 06:17 14.24035 144.04642 22924 ft 447 kts 320°
2026-05-05 06:17 14.28758 144.00491 23519 ft 451 kts 320°
2026-05-05 06:18 14.33564 143.96263 24118 ft 454 kts 320°
2026-05-05 06:18 14.38322 143.92075 24686 ft 456 kts 319°
2026-05-05 06:18 14.43170 143.87804 25233 ft 459 kts 319°
2026-05-05 06:18 14.47984 143.83559 25719 ft 462 kts 319°
2026-05-05 06:19 14.52882 143.79237 26151 ft 465 kts 319°
2026-05-05 06:19 14.57832 143.74866 26578 ft 468 kts 318°
2026-05-05 06:19 14.62740 143.70528 27044 ft 468 kts 318°
2026-05-05 06:19 14.67671 143.66165 27599 ft 465 kts 317°
2026-05-05 06:20 14.72594 143.61809 28040 ft 465 kts 317°
2026-05-05 06:20 14.77444 143.57523 28456 ft 465 kts 317°
2026-05-05 06:20 14.82340 143.53183 28935 ft 464 kts 317°
2026-05-05 06:20 14.87210 143.48859 29366 ft 463 kts 317°
2026-05-05 06:21 14.92089 143.44522 29797 ft 463 kts 317°
2026-05-05 06:21 14.96950 143.40198 30211 ft 462 kts 317°
2026-05-05 06:21 15.01790 143.35892 30634 ft 461 kts 317°
2026-05-05 06:21 15.06641 143.31572 31055 ft 459 kts 317°
2026-05-05 06:22 15.11461 143.27278 31526 ft 457 kts 317°
2026-05-05 06:22 15.16278 143.22983 31930 ft 456 kts 317°
2026-05-05 06:22 15.21009 143.18761 32280 ft 455 kts 317°
2026-05-05 06:22 15.25777 143.14505 32732 ft 453 kts 316°
2026-05-05 06:23 15.30585 143.10210 33242 ft 450 kts 316°
2026-05-05 06:23 15.35266 143.06026 33678 ft 448 kts 316°
2026-05-05 06:23 15.39996 143.01794 34102 ft 447 kts 316°
2026-05-05 06:23 15.44577 142.97694 34431 ft 447 kts 316°
2026-05-05 06:24 15.49099 142.93643 34674 ft 449 kts 316°
2026-05-05 06:24 15.53637 142.89577 34947 ft 449 kts 316°
2026-05-05 06:24 15.58185 142.85500 35209 ft 448 kts 316°
2026-05-05 06:24 15.62538 142.81593 35386 ft 449 kts 316°
2026-05-05 06:25 15.66887 142.77689 35546 ft 450 kts 316°
2026-05-05 06:25 15.71363 142.73669 35720 ft 450 kts 316°
2026-05-05 06:25 15.75887 142.69603 35888 ft 450 kts 316°
2026-05-05 06:25 15.80496 142.65457 35898 ft 450 kts 316°
2026-05-05 06:26 15.89757 142.57118 35909 ft 450 kts 316°
2026-05-05 06:26 15.99111 142.48679 35904 ft 449 kts 316°
2026-05-05 06:27 16.13204 142.35965 35911 ft 449 kts 316°
2026-05-05 06:28 16.22488 142.27576 35915 ft 449 kts 316°
2026-05-05 06:28 16.31034 142.19835 35917 ft 449 kts 316°
2026-05-05 06:29 16.40237 142.11490 35923 ft 449 kts 316°
2026-05-05 06:29 16.49676 142.02914 35922 ft 449 kts 316°
2026-05-05 06:30 16.59035 141.94400 35922 ft 450 kts 317°
2026-05-05 06:30 16.68471 141.85902 35924 ft 450 kts 317°
2026-05-05 06:31 16.77898 141.77382 35926 ft 450 kts 317°
2026-05-05 06:31 16.87334 141.68835 35926 ft 451 kts 317°
2026-05-05 06:32 16.96714 141.60330 35926 ft 451 kts 317°
2026-05-05 06:32 17.06184 141.51730 35927 ft 451 kts 317°
2026-05-05 06:33 17.15587 141.43178 35928 ft 452 kts 317°
2026-05-05 06:33 17.25052 141.34558 35931 ft 452 kts 317°
2026-05-05 06:34 17.34508 141.25934 35933 ft 452 kts 317°
2026-05-05 06:34 17.43960 141.17302 35936 ft 452 kts 317°
2026-05-05 06:35 17.53427 141.08643 35937 ft 453 kts 317°
2026-05-05 06:35 17.62843 141.00017 35941 ft 453 kts 317°
2026-05-05 06:36 17.72315 140.91330 35937 ft 453 kts 317°
2026-05-05 06:36 17.81728 140.82684 35941 ft 454 kts 317°
2026-05-05 06:37 17.91223 140.73947 35945 ft 454 kts 318°
2026-05-05 06:37 18.00676 140.65240 35950 ft 454 kts 318°
2026-05-05 06:38 18.10100 140.56547 35949 ft 455 kts 318°
2026-05-05 06:38 18.19588 140.47780 35953 ft 455 kts 318°
2026-05-05 06:39 18.29004 140.39066 35949 ft 455 kts 318°
2026-05-05 06:39 18.38453 140.30309 35950 ft 455 kts 317°
2026-05-05 06:40 18.47879 140.21559 35949 ft 455 kts 318°
2026-05-05 06:40 18.57341 140.12762 35951 ft 455 kts 317°
2026-05-05 06:41 18.66766 140.03986 35952 ft 455 kts 318°
2026-05-05 06:41 18.76213 139.95178 35953 ft 455 kts 318°
2026-05-05 06:42 18.85706 139.86311 35955 ft 455 kts 318°
2026-05-05 06:42 18.95110 139.77513 35957 ft 455 kts 318°
2026-05-05 06:43 19.04547 139.68672 35958 ft 455 kts 318°
2026-05-05 06:43 19.13991 139.59810 35960 ft 455 kts 318°
2026-05-05 06:44 19.23449 139.50920 35961 ft 455 kts 318°
2026-05-05 06:44 19.32844 139.42075 35963 ft 455 kts 317°
2026-05-05 06:45 19.42341 139.33119 35957 ft 455 kts 317°
2026-05-05 06:45 19.51716 139.24266 35960 ft 455 kts 317°
2026-05-05 06:46 19.61172 139.15320 35961 ft 455 kts 317°
2026-05-05 06:46 19.70530 139.06453 35963 ft 455 kts 317°
2026-05-05 06:47 19.79951 138.97510 35962 ft 454 kts 317°
2026-05-05 06:47 19.89328 138.88596 35968 ft 455 kts 317°
2026-05-05 06:48 19.98725 138.79643 35967 ft 454 kts 317°
2026-05-05 06:48 20.08030 138.70767 35974 ft 454 kts 317°
2026-05-05 06:49 20.17413 138.61801 35970 ft 453 kts 317°
2026-05-05 06:49 20.26714 138.52899 35976 ft 452 kts 317°
2026-05-05 06:50 20.36065 138.43935 35971 ft 453 kts 317°
2026-05-05 06:50 20.45392 138.34978 35977 ft 452 kts 317°
2026-05-05 06:51 20.54675 138.26047 35974 ft 452 kts 317°
2026-05-05 06:51 20.63982 138.17076 35983 ft 452 kts 317°
2026-05-05 06:52 20.73282 138.08096 35977 ft 452 kts 317°
2026-05-05 06:52 20.82502 137.99176 35987 ft 451 kts 317°
2026-05-05 06:53 20.91766 137.90195 35985 ft 451 kts 317°
2026-05-05 06:53 21.01335 137.81668 35989 ft 451 kts 324°
2026-05-05 06:54 21.12119 137.74843 35984 ft 451 kts 329°
2026-05-05 06:54 21.23023 137.68233 35985 ft 452 kts 329°
2026-05-05 06:55 21.33932 137.61592 35983 ft 452 kts 329°
2026-05-05 06:55 21.44836 137.54941 35991 ft 452 kts 329°
2026-05-05 06:56 21.55688 137.48311 35988 ft 451 kts 329°
2026-05-05 06:56 21.66578 137.41644 35990 ft 451 kts 328°
2026-05-05 06:57 21.77386 137.35016 35988 ft 452 kts 328°
2026-05-05 06:57 21.88254 137.28342 35998 ft 450 kts 328°
2026-05-05 06:58 21.99121 137.21654 35990 ft 451 kts 328°
2026-05-05 06:58 22.09970 137.14967 35995 ft 451 kts 328°
2026-05-05 06:59 22.20726 137.08324 35988 ft 451 kts 328°
2026-05-05 06:59 22.31553 137.01625 35985 ft 451 kts 328°
2026-05-05 07:00 22.42385 136.94913 35986 ft 450 kts 328°
2026-05-05 07:00 22.53136 136.88237 35989 ft 451 kts 328°
2026-05-05 07:01 22.63929 136.81525 35990 ft 451 kts 328°
2026-05-05 07:01 22.74785 136.74759 35988 ft 451 kts 327°
2026-05-05 07:02 22.85584 136.68016 35992 ft 452 kts 327°
2026-05-05 07:02 22.96433 136.61232 35988 ft 453 kts 327°
2026-05-05 07:03 23.07251 136.54452 35991 ft 452 kts 327°
2026-05-05 07:03 23.18026 136.47687 35992 ft 453 kts 327°
2026-05-05 07:04 23.28867 136.40868 35991 ft 451 kts 327°
2026-05-05 07:04 23.39659 136.34065 35993 ft 452 kts 326°
2026-05-05 07:05 23.50370 136.27304 35991 ft 452 kts 326°
2026-05-05 07:05 23.61074 136.20532 35986 ft 450 kts 326°
2026-05-05 07:06 23.71719 136.13786 35992 ft 451 kts 326°
2026-05-05 07:06 23.82341 136.07042 35984 ft 450 kts 326°
2026-05-05 07:07 23.92910 136.00317 35994 ft 450 kts 325°
2026-05-05 07:07 24.03443 135.93602 35985 ft 449 kts 325°
2026-05-05 07:08 24.13911 135.86919 35999 ft 449 kts 325°
2026-05-05 07:08 24.24287 135.80275 35990 ft 448 kts 325°
2026-05-05 07:09 24.34452 135.73759 35998 ft 448 kts 324°
2026-05-05 07:09 24.44491 135.67313 36000 ft 446 kts 324°
2026-05-05 07:10 24.54645 135.60776 36000 ft 446 kts 324°
2026-05-05 07:10 24.64684 135.54305 36002 ft 447 kts 324°
2026-05-05 07:11 24.74694 135.47836 36002 ft 446 kts 324°
2026-05-05 07:11 24.84644 135.41400 36011 ft 446 kts 324°
2026-05-05 07:12 24.94571 135.34963 36009 ft 445 kts 323°
2026-05-05 07:12 25.04348 135.28609 36004 ft 444 kts 323°
2026-05-05 07:13 25.13966 135.22350 36008 ft 444 kts 323°
2026-05-05 07:13 25.23586 135.16075 36009 ft 443 kts 323°
2026-05-05 07:14 25.33215 135.09782 36009 ft 442 kts 323°
2026-05-05 07:14 25.42788 135.03511 36015 ft 442 kts 323°
2026-05-05 07:15 25.52101 134.97182 36013 ft 439 kts 320°
2026-05-05 07:15 25.60950 134.90480 36022 ft 438 kts 319°
2026-05-05 07:16 25.69748 134.83789 36018 ft 439 kts 319°
2026-05-05 07:16 25.78529 134.77109 36016 ft 437 kts 319°
2026-05-05 07:17 25.87374 134.70361 36024 ft 437 kts 319°
2026-05-05 07:17 25.96022 134.63757 36029 ft 437 kts 319°
2026-05-05 07:18 26.04794 134.57045 36027 ft 437 kts 319°